STARLINK-11504 [DTC] (62274 NORAD) Tracking and Keplerian Element Data

This shows tracking and keplerian element data for the satellite.

Feedback or suggestion? Click here.




ElementValue
Catalog62274
NameSTARLINK-11504 [DTC]
Epoch Orbit1016
Epoch Day34.15531215
Epoch Year2025
RAAN305.0721
Inclination43.0004
Eccentricity0.0001885
Argument of Perigee237.6278
Mean Anonmoly122.4407
Mean Motion15.70833515
Decay Rate3.064E-05
L11 62274U 24237H 25034.15531215 .00003064 00000+0 27370-4 0 9991
L22 62274 43.0004 305.0721 0001885 237.6278 122.4407 15.70833515 10165



Live tracking and technical data element details for STARLINK-11504 [DTC] (NORAD 62274). STARLINK-11504 [DTC] can be tracked NOW for your location showing map with azimuth and elevation plus other details from your city location.







IsCatalogInMostPopularTable: catalog: 62274, numindb: 12
Update: records affected: 1



GetName: 62274 STARLINK-11504 [DTC]

Hit Count: updated at: Sun, 18 May 2025 23:43:05 GMT